Location: Chantarel
(45.1638°N, 1.7873°E)
Time: 17:24:42
(UTC+00:00)

SL-08 R/B - Pass Details

Date: 03 March 2021
Orbit: 949 x 1019 km, 82.9° (Epoch: 11 April)

Event Time Altitude Azimuth Distance (km) Brightness Sun altitude
Rises 20:05:58 0° 181° (S) 3,722 7.4 -25.7°
Enters shadow 20:06:05 - 181° (S) 3,679 7.4 -25.7°
Exits shadow 20:11:54 34° 176° (S) 1,593 5.4 -26.7°
Maximum altitude 20:14:54 78° 95° (E) 1,042 4.4 -27.2°
Drops below altitude 10° 20:21:23 10° 11° (N) 2,817 7.0 -28.3°
Sets 20:23:56 0° 10° (N) 3,771 7.7 -28.7°
